Location: Newark
(27.9675°N, 86.8869°E)
Time: 20:45:19
(UTC+00:00)

deb Explorer IX - Pass Details

Date: 26 October 2019
Orbit: 546 x 1105 km, 38.8° (Epoch: 16 November)

Event Time Altitude Azimuth Distance (km) Brightness Sun altitude
Rises 05:53:36 0° 278° (W) 2,827 ? 49.7°
Reaches altitude 10° 05:56:03 10° 291° (WNW) 1,990 ? 49.7°
Maximum altitude 06:00:01 28° 350° (N) 1,274 ? 49.7°
Drops below altitude 10° 06:04:30 10° 49° (NE) 2,270 ? 49.6°
Sets 06:07:29 0° 60° (ENE) 3,308 ? 49.6°
